Preview of NWS' New Version of Forecast
This preview is not operational and should not be used for support decisions.

Terminal Aerodrome Forecast (TAF)

Issued by National Weather Service (NWS)

                            
000
FTUS42 KKEY 212127 AAA
TAFEYW
TAF AMD
KEYW 212127Z 2121/2218 12009KT P6SM FEW020=